Home   Weather   Rüsselsheim   Past weeks

Flag for Germany Past Weather in Rüsselsheim, Hesse, Germany — Yesterday and Last 2 Weeks

Now
57 °F

Sunny.


Feels Like: 57 °F
Forecast: 39 / 65 °F
Wind: No wind

Location: Wiesbaden Airport

Current Time: Apr 29, 2017 at 7:58:08 pm

Latest Report: Apr 29, 2017 at 6:58 pm


Visibility: N/A

Pressure: 30.01 "Hg

Humidity: 36%

Dew Point: 30 °F

Location of RüsselsheimLocation

Past Weather in Rüsselsheim — Graph

°F

Rüsselsheim Temperature Yesterday

Maximum temperature yesterday: 54 °F (at 3:58 pm)
Minimum temperature yesterday: 38 °F (at 5:58 am)
Average temperature yesterday: 47 °F

High & Low Weather Summary for the Past Weeks

 TemperatureHumidityPressure
High61 °F (Apr 24, 4:58 pm)96% (Apr 17, 8:58 am)30.63 "Hg (Apr 17, 8:58 am)
Low31 °F (Apr 24, 6:58 am)26% (Apr 20, 5:58 pm)29.71 "Hg (Apr 25, 4:58 am)
Average46 °F62%30.13 "Hg
* Reported Apr 14 5:58 pm — Apr 29 5:58 pm, Rüsselsheim, Weather by CustomWeather, © 2017

Note: Actual official high and low records may vary slightly from our data, if they occured in-between our weather recording intervals... More about our weather records

Advertising

Rüsselsheim Weather History for the Previous 24 Hours

Scroll right to see more
 ConditionsComfort  
Time TempWeatherWind HumidityBarometerVisibility
5:58 pm
Sat, Apr 29
57 °FPassing clouds.No wind36%30.02 "HgN/A
4:58 pm59 °FSunny.No wind34%30.03 "HgN/A
3:58 pm55 °FPassing clouds.No wind38%30.04 "HgN/A
2:58 pm57 °FScattered clouds.No wind36%30.05 "HgN/A
1:58 pm56 °FScattered clouds.3 mph36%30.05 "HgN/A
12:58 pm55 °FScattered clouds.8 mph41%30.06 "HgN/A
11:58 am54 °FSunny.12 mph44%30.07 "HgN/A
10:58 am50 °FSunny.No wind52%30.08 "HgN/A
9:58 am50 °FPassing clouds.5 mph53%30.08 "HgN/A
8:58 am46 °FSunny.5 mph71%30.09 "HgN/A
7:58 am45 °FSunny.No wind76%30.08 "HgN/A
6:58 am43 °FScattered clouds.3 mph81%30.07 "HgN/A
5:58 am43 °FPartly cloudy.No wind81%30.06 "HgN/A
4:58 am43 °FPassing clouds.3 mph81%30.05 "HgN/A
3:58 am43 °FOvercast.No wind81%30.05 "HgN/A
2:58 am43 °FOvercast.5 mph81%30.04 "HgN/A
1:58 am44 °FOvercast.3 mph79%30.03 "HgN/A
12:58 am43 °FOvercast.6 mph79%30.03 "HgN/A
11:58 pm
Fri, Apr 28
46 °FOvercast.6 mph71%30.02 "HgN/A
10:58 pm46 °FPassing clouds.5 mph72%30.02 "HgN/A
9:58 pm45 °FPassing clouds.5 mph71%30.01 "HgN/A
8:58 pm47 °FPassing clouds.3 mph68%30.00 "HgN/A
7:58 pm52 °FSunny.6 mph50%29.98 "HgN/A
Weather by CustomWeather, © 2017

See weather overviewHow to use our weather pages